Weather reports worldwide

Advertisment
Trawscoed, United Kingdom (3503): temperature & dewpoint: 16.01.2019 03:00:00 - 22.01.2019 03:00:00 (GMT)Trawscoed, United Kingdom (3503): temperature -20cm & temperature -100cm: 16.01.2019 03:00:00 - 22.01.2019 03:00:00 (GMT)Trawscoed, United Kingdom (3503): wind speed & gusts: 16.01.2019 03:00:00 - 22.01.2019 03:00:00 (GMT)Trawscoed, United Kingdom (3503): wind direction: 16.01.2019 03:00:00 - 22.01.2019 03:00:00 (GMT)Trawscoed, United Kingdom (3503): reduced air pressure: 16.01.2019 03:00:00 - 22.01.2019 03:00:00 (GMT)Trawscoed, United Kingdom (3503): visibility: 16.01.2019 03:00:00 - 22.01.2019 03:00:00 (GMT)Trawscoed, United Kingdom (3503): precipitation: 16.01.2019 03:00:00 - 22.01.2019 03:00:00 (GMT)
Date & Time tt [°C] td [°C] tt -20cm [°C] tt -100cm [°C] ff [km/h] ff [kn] fx [km/h] fx [kn] dd ppp [hPa] vv [km] rr [mm]
22.01.2019 03:00:00 3,8 1,0 - - 11 6 - - W 1005,5 24 0,6
22.01.2019 02:00:00 3,8 1,0 - - 8 4 - - NW 1006,1 28 0,0
22.01.2019 01:00:00 3,3 1,1 - - 8 4 - - NW 1006,4 23 0,0
22.01.2019 00:00:00 - - - - - - - - - - - -
21.01.2019 23:00:00 3,0 2,4 - - 4 2 - - SSW 1006,8 20 0,2
21.01.2019 22:00:00 3,2 2,2 - - 15 8 50 27 WNW 1007,8 2,4 3,4
21.01.2019 21:00:00 6,3 4,6 - - 21 11 - - SSW 1006,5 9 1,0
21.01.2019 20:00:00 6,2 3,8 - - 16 9 - - S 1008,6 23 0,0
21.01.2019 19:00:00 5,9 3,3 - - 15 8 - - S 1010,7 19 0,0
21.01.2019 18:00:00 5,6 3,2 - - 11 6 - - S 1012,2 26 0,2
21.01.2019 17:00:00 6,3 2,9 - - 15 8 - - S 1014,2 45 0,0
21.01.2019 16:00:00 6,1 3,9 - - 8 4 - - S 1016,0 35 0,0
21.01.2019 15:00:00 6,3 4,0 - - 8 4 - - S 1017,1 19 0,0
21.01.2019 14:00:00 6,0 3,5 - - 13 7 - - S 1018,5 23 0,0
21.01.2019 13:00:00 5,5 3,6 - - 11 6 - - S 1019,8 23 0,0
21.01.2019 12:00:00 5,0 3,4 - - 15 8 - - S 1021,3 26 0,2
21.01.2019 11:00:00 3,7 3,4 - - 8 4 - - S 1022,5 35 0,0
21.01.2019 10:00:00 0,3 0,2 - - 2 1 - - NNW 1023,4 12 0,0
21.01.2019 09:00:00 -2,0 -2,4 7,2 8,5 0 0 - - N 1024,0 21 0,0
21.01.2019 08:00:00 -1,3 -1,6 - - 4 2 - - ESE 1024,5 23 0,0
21.01.2019 07:00:00 -0,7 -0,9 - - 4 2 - - E 1024,7 23 0,0
21.01.2019 06:00:00 -1,3 -1,6 - - 2 1 - - E 1024,8 8 0,0
21.01.2019 05:00:00 0,1 -0,1 - - 4 2 - - E 1024,8 0,6 0,0
21.01.2019 04:00:00 0,2 -0,1 - - 0 0 - - N 1025,1 8 0,0
21.01.2019 03:00:00 1,9 1,6 - - 2 1 - - SSW 1025,5 6 0,0
21.01.2019 02:00:00 1,1 0,6 - - 2 1 - - SSW 1025,7 6 0,0
21.01.2019 01:00:00 1,8 1,0 - - 0 0 - - N 1025,7 4,4 0,0
21.01.2019 00:00:00 4,1 3,6 - - 2 1 - - WSW 1025,4 9 0,0
20.01.2019 23:00:00 4,3 3,9 - - 2 1 - - NNE 1025,1 9 0,0
20.01.2019 22:00:00 4,2 3,7 - - 2 1 - - S 1024,6 11 0,0
20.01.2019 21:00:00 4,0 3,2 - - 2 1 - - SE 1024,2 12 0,0
20.01.2019 20:00:00 4,3 3,7 - - 2 1 - - SSE 1023,9 20 0,0
20.01.2019 19:00:00 3,8 3,2 - - 2 1 - - S 1023,5 29 0,0
20.01.2019 18:00:00 3,8 2,8 - - 2 1 - - SE 1023,0 23 0,0
20.01.2019 17:00:00 2,9 0,9 - - 4 2 - - N 1022,0 50 0,0
20.01.2019 16:00:00 7,5 2,4 - - 5 3 - - NNE 1021,0 50 0,0
20.01.2019 15:00:00 7,4 3,4 - - 9 5 - - N 1020,5 27 0,0
20.01.2019 14:00:00 6,9 3,5 - - 9 5 - - NNE 1019,9 50 0,0
20.01.2019 13:00:00 7,7 6,0 - - 4 2 - - S 1019,4 17 0,0
20.01.2019 12:00:00 6,6 5,7 - - 2 1 - - NW 1019,1 12 0,0
20.01.2019 11:00:00 6,1 5,6 - - 2 1 - - SSE 1018,5 12 0,0
20.01.2019 10:00:00 5,0 4,8 - - 2 1 - - S 1017,6 5 0,2
20.01.2019 09:00:00 4,7 4,3 7,2 8,5 2 1 - - N 1016,7 5 0,2
20.01.2019 08:00:00 5,0 4,6 - - 2 1 - - SSW 1015,7 5 0,0
20.01.2019 07:00:00 5,0 4,5 - - 2 1 - - NNW 1014,7 10 0,0
20.01.2019 06:00:00 5,1 4,7 - - 2 1 - - ENE 1013,8 9 0,0
20.01.2019 05:00:00 5,2 4,6 - - 0 0 - - N 1013,1 11 0,0
20.01.2019 04:00:00 5,2 4,6 - - 0 0 - - N 1012,6 16 0,0
20.01.2019 03:00:00 5,4 4,7 - - 2 1 - - WNW 1012,2 11 0,0
20.01.2019 02:00:00 5,3 4,6 - - 0 0 - - N 1011,6 15 0,0
20.01.2019 01:00:00 5,3 4,6 - - 2 1 - - S 1011,2 19 0,0
20.01.2019 00:00:00 5,0 4,2 - - 0 0 - - N 1010,7 26 0,0
19.01.2019 23:00:00 5,1 4,0 - - 0 0 - - N 1010,2 29 0,0
19.01.2019 22:00:00 5,1 4,6 - - 4 2 - - WSW 1009,7 25 0,0
19.01.2019 21:00:00 5,0 4,4 - - 2 1 - - WSW 1009,1 35 0,0
19.01.2019 20:00:00 5,2 4,5 - - 4 2 - - E 1008,4 35 0,0
19.01.2019 19:00:00 5,4 4,5 - - 2 1 - - SSE 1007,9 50 0,0
19.01.2019 18:00:00 5,2 4,0 - - 2 1 - - SSW 1007,4 45 0,0
19.01.2019 17:00:00 6,8 4,6 - - 4 2 - - SSW 1006,6 50 0,0
19.01.2019 16:00:00 7,5 5,5 - - 2 1 - - SE 1006,1 50 0,0
19.01.2019 15:00:00 7,8 6,0 - - 8 4 - - ESE 1005,7 9 0,0
19.01.2019 14:00:00 8,4 5,7 - - 5 3 - - SE 1005,5 50 0,0
19.01.2019 13:00:00 8,2 6,2 - - 11 6 - - SE 1005,6 18 0,0
19.01.2019 12:00:00 8,0 5,6 - - 9 5 - - SE 1005,8 45 0,0
19.01.2019 11:00:00 7,3 5,4 - - 9 5 - - SE 1005,8 35 0,0
19.01.2019 10:00:00 5,9 5,2 - - 0 0 - - N 1005,6 20 0,0
19.01.2019 09:00:00 5,4 4,5 6,9 8,7 2 1 - - WSW 1005,2 12 0,2
19.01.2019 08:00:00 5,4 4,1 - - 4 2 - - W 1004,6 35 0,0
19.01.2019 07:00:00 5,7 4,1 - - 9 5 - - ESE 1004,4 50 0,0
19.01.2019 06:00:00 5,8 4,4 - - 11 6 - - ESE 1004,4 16 0,6
19.01.2019 05:00:00 6,0 4,2 - - 16 9 - - ESE 1004,4 23 0,0
19.01.2019 04:00:00 5,8 4,1 - - 13 7 - - ESE 1004,7 45 0,2
19.01.2019 03:00:00 5,7 4,1 - - 21 11 - - ESE 1005,2 23 1,0
19.01.2019 02:00:00 5,6 3,8 - - 11 6 - - SE 1005,7 40 0,2
19.01.2019 01:00:00 5,3 3,3 - - 4 2 - - SSE 1005,9 50 0,0
19.01.2019 00:00:00 5,3 3,2 - - 9 5 - - SE 1006,4 50 0,0
18.01.2019 23:00:00 5,4 3,2 - - 8 4 - - SSE 1006,6 50 0,0
18.01.2019 22:00:00 5,3 3,3 - - 11 6 - - SSE 1006,8 35 0,0
18.01.2019 21:00:00 5,7 3,9 - - 15 8 - - SSE 1006,9 50 0,6
18.01.2019 20:00:00 5,5 3,6 - - 15 8 - - SSE 1007,2 35 0,0
18.01.2019 19:00:00 5,2 3,3 - - 18 10 - - SSE 1007,0 50 0,0
18.01.2019 18:00:00 5,1 2,4 - - 16 9 - - SSE 1007,3 50 0,2
18.01.2019 17:00:00 4,7 2,5 - - 21 11 - - SSE 1007,7 50 0,2
18.01.2019 16:00:00 4,4 2,6 - - 15 8 - - SSE 1008,0 28 0,6
18.01.2019 15:00:00 5,4 2,4 - - 26 14 - - SSE 1008,1 50 0,0
18.01.2019 14:00:00 5,4 2,5 - - 24 13 - - SSE 1008,6 45 0,0
18.01.2019 13:00:00 4,4 2,2 - - 28 15 46 25 SSE 1008,6 16 0,2
18.01.2019 12:00:00 5,8 2,1 - - 28 15 55 30 SSE 1009,5 50 0,0
18.01.2019 11:00:00 4,6 1,8 - - 31 17 52 28 SSE 1010,2 50 0,0
18.01.2019 10:00:00 3,9 1,5 - - 26 14 46 25 SE 1010,6 17 0,4
18.01.2019 09:00:00 3,5 1,3 7,0 8,7 22 12 - - SE 1011,4 8 0,4
18.01.2019 08:00:00 4,1 -0,4 - - 26 14 - - SSE 1012,0 22 0,0
18.01.2019 07:00:00 3,6 -1,8 - - 21 11 46 25 SSE 1012,3 40 0,0
18.01.2019 06:00:00 3,1 -1,8 - - 22 12 - - SSE 1012,9 50 0,0
18.01.2019 05:00:00 3,0 -1,4 - - 15 8 - - SSE 1014,0 45 0,0
18.01.2019 04:00:00 2,7 -2,0 - - 11 6 - - SSE 1015,1 50 0,0
18.01.2019 03:00:00 1,1 -0,7 - - 5 3 - - NNW 1016,0 45 0,0
18.01.2019 02:00:00 -0,3 -1,3 - - 2 1 - - SSE 1016,8 26 0,0
18.01.2019 01:00:00 0,0 -1,2 - - 2 1 - - NE 1017,3 45 0,0
18.01.2019 00:00:00 0,1 -0,9 - - 2 1 - - NE 1018,0 45 0,0
17.01.2019 23:00:00 -0,5 -1,0 - - 2 1 - - WNW 1018,4 25 0,0
17.01.2019 22:00:00 -0,7 -1,3 - - 4 2 - - SE 1018,6 23 0,0
17.01.2019 21:00:00 0,0 -0,5 - - 4 2 - - WSW 1019,0 26 0,0
17.01.2019 20:00:00 0,5 0,2 - - 2 1 - - ESE 1019,1 23 0,0
17.01.2019 19:00:00 -0,2 -0,7 - - 2 1 - - NNE 1019,1 21 0,0
17.01.2019 18:00:00 0,5 0,0 - - 2 1 - - WSW 1018,5 23 0,0
17.01.2019 17:00:00 1,2 0,1 - - 5 3 - - NE 1017,9 28 0,0
17.01.2019 16:00:00 2,8 1,1 - - 4 2 - - ESE 1017,7 28 0,0
17.01.2019 15:00:00 4,4 1,2 - - 15 8 - - NNW 1017,0 30 0,0
17.01.2019 14:00:00 5,8 -1,5 - - 16 9 - - NW 1016,6 29 0,0
17.01.2019 13:00:00 5,8 -1,2 - - 15 8 - - NNW 1016,5 40 0,0
17.01.2019 12:00:00 5,2 -1,2 - - 8 4 - - NW 1016,6 35 0,0
17.01.2019 11:00:00 3,4 0,8 - - 4 2 - - S 1016,2 28 0,0
17.01.2019 10:00:00 2,1 -0,2 - - 4 2 - - ESE 1015,2 40 0,0
17.01.2019 09:00:00 -0,5 -1,7 7,7 8,7 4 2 - - S 1014,2 45 0,0
17.01.2019 08:00:00 1,2 -1,1 - - 5 3 - - N 1012,8 45 0,0
17.01.2019 07:00:00 2,0 -1,0 - - 9 5 - - N 1011,5 45 0,0
17.01.2019 06:00:00 4,2 0,9 - - 16 9 - - NNW 1009,7 30 0,0
17.01.2019 05:00:00 5,0 1,8 - - 18 10 - - NW 1008,5 15 0,2
17.01.2019 04:00:00 2,8 1,8 - - 5 3 - - N 1007,8 50 0,6
17.01.2019 03:00:00 3,7 2,0 - - 15 8 - - N 1007,0 50 0,0
17.01.2019 02:00:00 0,8 0,5 - - 2 1 - - SE 1006,2 13 0,0
17.01.2019 01:00:00 1,7 1,3 - - 2 1 - - SE 1005,7 50 0,2
17.01.2019 00:00:00 1,0 0,2 - - 2 1 - - E 1005,0 24 0,0
16.01.2019 23:00:00 2,8 2,2 - - 2 1 - - NW 1004,0 19 1,0
16.01.2019 22:00:00 2,7 1,8 - - 5 3 - - ENE 1003,2 6 3,4
16.01.2019 21:00:00 3,9 2,4 - - 5 3 - - SSW 1002,4 14 0,4
16.01.2019 20:00:00 4,3 3,6 - - 4 2 - - SSW 1001,8 3,1 0,8
16.01.2019 19:00:00 4,9 3,2 - - 13 7 - - SSW 1001,7 10 1,0
16.01.2019 18:00:00 4,4 3,3 - - 5 3 - - S 1001,8 21 0,0
16.01.2019 17:00:00 5,1 2,9 - - 8 4 - - S 1002,4 21 0,0
16.01.2019 16:00:00 6,5 2,9 - - 4 2 - - SW 1002,7 26 0,0
16.01.2019 15:00:00 7,6 4,0 - - 8 4 - - W 1002,8 25 0,0
16.01.2019 14:00:00 7,2 5,0 - - 9 5 - - W 1003,1 21 0,0
16.01.2019 13:00:00 6,1 5,2 - - 11 6 - - WSW 1003,3 50 0,6
16.01.2019 12:00:00 5,8 4,6 - - 4 2 - - WNW 1003,7 14 1,0
16.01.2019 11:00:00 5,7 4,5 - - 13 7 - - WNW 1004,3 12 2,0
16.01.2019 10:00:00 5,8 5,0 - - 8 4 - - WNW 1004,1 11 1,6
16.01.2019 09:00:00 6,7 5,8 8,0 8,7 16 9 - - WNW 1003,6 4,1 0,4
16.01.2019 08:00:00 8,8 6,7 - - 11 6 - - SSW 1002,7 45 0,0
16.01.2019 07:00:00 9,0 6,8 - - 13 7 - - SW 1003,8 18 0,0
16.01.2019 06:00:00 8,7 7,0 - - 9 5 - - S 1004,3 30 0,0
16.01.2019 05:00:00 8,5 6,7 - - 11 6 - - S 1005,3 40 0,0
16.01.2019 04:00:00 8,6 6,5 - - 9 5 - - S 1006,4 40 0,0
16.01.2019 03:00:00 8,7 6,7 - - 9 5 - - SSW 1007,4 50 0,2

tt = temperature
td = dewpoint
tt -20cm = temperature -20cm
tt -100cm = temperature -100cm
ff = wind speed
fx = gusts
dd = wind direction
ppp = reduced air pressure
vv = visibility
rr = precipitation

Next stations